This is the latest recevied weather packets stored in our database for station/object KX4O-13. If no packets are shown the sender has not sent any weather packets the latest 1 day(s).
| Time | Temp. | Humidity | Pressure | Rain* | Wind** | Luminosity | Snow |
|---|---|---|---|---|---|---|---|
| 1778107551 | 20.56° C | 77% | 1007.7 hPa | 0 mm | - | 81 W/m² | - |
| 1778106351 | 21.11° C | 77% | 1007.6 hPa | 0 mm | - | 134 W/m² | - |
| 1778106051 | 21.11° C | 77% | 1007.6 hPa | 0 mm | - | 155 W/m² | - |
| 1778105451 | 21.11° C | 77% | 1007.9 hPa | 0 mm | - | 218 W/m² | - |
| 1778105151 | 20.56° C | 77% | 1007.8 hPa | 0 mm | - | 167 W/m² | - |
| 1778104551 | 20.56° C | 77% | 1007.6 hPa | 0 mm | - | 186 W/m² | - |
| 1778103951 | 20.56° C | 77% | 1007.7 hPa | 0 mm | - | 237 W/m² | - |
| 1778103651 | 20.56° C | 78% | 1007.8 hPa | 0 mm | - | 183 W/m² | - |
| 1778103351 | 20.56° C | 77% | 1007.7 hPa | 0 mm | - | 190 W/m² | - |
| 1778103051 | 20.56° C | 78% | 1007.6 hPa | 0 mm | - | 192 W/m² | - |
| 1778102451 | 20.56° C | 77% | 1007.6 hPa | 0 mm | - | 230 W/m² | - |
| 1778101551 | 20° C | 78% | 1007.5 hPa | 0 mm | - | 200 W/m² | - |
| 1778101251 | 20° C | 78% | 1007.5 hPa | 0 mm | - | 190 W/m² | - |
| 1778100651 | 20° C | 79% | 1007.4 hPa | 0 mm | - | 214 W/m² | - |
| 1778100051 | 20° C | 79% | 1007.4 hPa | 0 mm | - | 251 W/m² | - |
| 1778099151 | 20° C | 79% | 1007.3 hPa | 0 mm | - | 239 W/m² | - |
| 1778098851 | 20° C | 79% | 1007.3 hPa | 0 mm | - | 260 W/m² | - |
| 1778098251 | 20.56° C | 79% | 1007.3 hPa | 0 mm | - | 306 W/m² | - |
| 1778097951 | 20° C | 79% | 1007.3 hPa | 0 mm | - | 304 W/m² | - |
| 1778097351 | 20° C | 79% | 1007.4 hPa | 0 mm | - | 364 W/m² | - |
| 1778096751 | 20° C | 80% | 1007.3 hPa | 0 mm | - | 352 W/m² | - |
| 1778096451 | 20° C | 80% | 1007.4 hPa | 0 mm | - | 301 W/m² | - |
| 1778096151 | 20° C | 79% | 1007.4 hPa | 0 mm | - | 334 W/m² | - |
| 1778095251 | 19.44° C | 80% | 1007.7 hPa | 0 mm | - | 292 W/m² | - |
| 1778092251 | 18.89° C | 83% | 1008.6 hPa | 0 mm | - | 214 W/m² | - |
* Rain latest hour (hover to see other rain measurements)
** Current wind speed in m/s (hover to see current wind gust speed)